Time,TemperatureF,DewpointF,PressureIn,WindDirection,WindDirectionDegrees,WindSpeedMPH,WindSpeedGustMPH,Humidity,HourlyPrecipIn,Conditions,Clouds,dailyrainin,SoftwareType,DateUTC
2013-03-07 00:00:00,42.2,9.7,29.57,West,263,5.0,5.0,26,0.00,,,0.00,Wunderground v.1.15,2013-03-07 07:00:00,
2013-03-07 00:05:00,42.2,9.7,29.57,North,355,5.0,9.0,26,0.00,,,0.00,Wunderground v.1.15,2013-03-07 07:05:00,
2013-03-07 00:10:00,42.1,10.5,29.57,North,360,4.0,9.0,27,0.00,,,0.00,Wunderground v.1.15,2013-03-07 07:10:00,
2013-03-07 00:15:00,42.0,9.5,29.57,East,90,3.0,9.0,26,0.00,,,0.00,Wunderground v.1.15,2013-03-07 07:15:00,
2013-03-07 00:20:00,42.2,9.7,29.57,NNE,23,4.0,9.0,26,0.00,,,0.00,Wunderground v.1.15,2013-03-07 07:20:00,
2013-03-07 00:25:00,42.4,9.0,29.58,NNE,13,5.0,9.0,25,0.00,,,0.00,Wunderground v.1.15,2013-03-07 07:25:00,
2013-03-07 00:30:00,42.3,9.8,29.58,NNE,31,5.0,9.0,26,0.00,,,0.00,Wunderground v.1.15,2013-03-07 07:30:00,
2013-03-07 00:35:00,42.5,8.2,29.59,North,360,5.0,13.0,24,0.00,,,0.00,Wunderground v.1.15,2013-03-07 07:35:00,
2013-03-07 00:40:00,42.8,9.3,29.58,NNE,13,6.0,6.0,25,0.00,,,0.00,Wunderground v.1.15,2013-03-07 07:40:00,
2013-03-07 00:45:00,42.7,9.3,29.59,ESE,123,4.0,9.0,25,0.00,,,0.00,Wunderground v.1.15,2013-03-07 07:45:00,
2013-03-07 00:50:00,42.8,9.3,29.58,NE,51,5.0,5.0,25,0.00,,,0.00,Wunderground v.1.15,2013-03-07 07:50:00,
2013-03-07 00:55:00,42.7,10.1,29.58,ENE,61,5.0,9.0,26,0.00,,,0.00,Wunderground v.1.15,2013-03-07 07:55:00,
2013-03-07 01:00:00,42.4,9.9,29.58,North,360,3.0,3.0,26,0.00,,,0.00,Wunderground v.1.15,2013-03-07 08:00:00,
2013-03-07 01:05:00,42.2,10.6,29.58,North,360,2.0,9.0,27,0.00,,,0.00,Wunderground v.1.15,2013-03-07 08:05:00,
2013-03-07 01:10:00,42.0,9.5,29.58,NNW,338,3.0,3.0,26,0.00,,,0.00,Wunderground v.1.15,2013-03-07 08:10:00,
2013-03-07 01:15:00,41.8,10.2,29.59,ENE,61,2.0,9.0,27,0.00,,,0.00,Wunderground v.1.15,2013-03-07 08:15:00,
2013-03-07 01:25:00,41.5,9.9,29.59,North,355,1.0,9.0,27,0.00,,,0.00,Wunderground v.1.15,2013-03-07 08:25:00,
2013-03-07 01:30:00,41.1,10.4,29.60,NW,312,0.0,9.0,28,0.00,,,0.00,Wunderground v.1.15,2013-03-07 08:30:00,
2013-03-07 01:40:00,40.6,7.5,29.58,SSW,194,1.0,1.0,25,0.00,,,0.00,Wunderground v.1.15,2013-03-07 08:40:00,
2013-03-07 01:45:00,41.4,8.1,29.58,South,191,2.0,2.0,25,0.00,,,0.00,Wunderground v.1.15,2013-03-07 08:45:00,
2013-03-07 01:50:00,41.7,7.5,29.58,West,266,2.0,2.0,24,0.00,,,0.00,Wunderground v.1.15,2013-03-07 08:50:00,
2013-03-07 01:55:00,42.2,7.9,29.58,NNE,15,2.0,9.0,24,0.00,,,0.00,Wunderground v.1.15,2013-03-07 08:55:00,
2013-03-07 02:00:00,42.3,8.9,29.58,West,259,3.0,3.0,25,0.00,,,0.00,Wunderground v.1.15,2013-03-07 09:00:00,
2013-03-07 02:05:00,42.3,8.0,29.58,NNW,344,2.0,5.0,24,0.00,,,0.00,Wunderground v.1.15,2013-03-07 09:05:00,
2013-03-07 02:15:00,42.6,9.2,29.57,NNE,26,4.0,7.0,25,0.00,,,0.00,Wunderground v.1.15,2013-03-07 09:15:00,
2013-03-07 02:20:00,42.5,9.1,29.56,NE,44,3.0,3.0,25,0.00,,,0.00,Wunderground v.1.15,2013-03-07 09:20:00,
2013-03-07 02:25:00,42.5,9.1,29.56,WSW,248,3.0,10.0,25,0.00,,,0.00,Wunderground v.1.15,2013-03-07 09:25:00,
2013-03-07 02:30:00,42.3,9.8,29.56,NW,321,4.0,4.0,26,0.00,,,0.00,Wunderground v.1.15,2013-03-07 09:30:00,
2013-03-07 02:34:00,42.0,9.5,29.56,NNE,13,4.0,9.0,26,0.00,,,0.00,Wunderground v.1.15,2013-03-07 09:34:00,
2013-03-07 02:45:00,41.7,9.3,29.56,NNE,16,2.0,9.0,26,0.00,,,0.00,Wunderground v.1.15,2013-03-07 09:45:00,
2013-03-07 02:55:00,41.3,10.6,29.55,North,5,3.0,3.0,28,0.00,,,0.00,Wunderground v.1.15,2013-03-07 09:55:00,
2013-03-07 03:00:00,41.0,11.1,29.55,NNE,25,2.0,2.0,29,0.00,,,0.00,Wunderground v.1.15,2013-03-07 10:00:00,
2013-03-07 03:05:00,41.1,9.6,29.55,NW,306,3.0,3.0,27,0.00,,,0.00,Wunderground v.1.15,2013-03-07 10:05:00,
2013-03-07 03:10:00,41.2,8.8,29.55,SW,216,3.0,9.0,26,0.00,,,0.00,Wunderground v.1.15,2013-03-07 10:10:00,
2013-03-07 03:20:00,41.5,9.1,29.54,SSE,167,5.0,5.0,26,0.00,,,0.00,Wunderground v.1.15,2013-03-07 10:20:00,
2013-03-07 03:25:00,41.6,9.2,29.53,ESE,122,5.0,9.0,26,0.00,,,0.00,Wunderground v.1.15,2013-03-07 10:25:00,
2013-03-07 03:30:00,41.6,10.0,29.53,South,171,4.0,9.0,27,0.00,,,0.00,Wunderground v.1.15,2013-03-07 10:30:00,
2013-03-07 03:35:00,41.4,10.7,29.54,NNE,17,4.0,9.0,28,0.00,,,0.00,Wunderground v.1.15,2013-03-07 10:35:00,
2013-03-07 03:40:00,41.1,10.4,29.54,SSE,154,3.0,9.0,28,0.00,,,0.00,Wunderground v.1.15,2013-03-07 10:40:00,
2013-03-07 03:45:00,41.0,9.5,29.53,NNW,340,3.0,9.0,27,0.00,,,0.00,Wunderground v.1.15,2013-03-07 10:45:00,
2013-03-07 03:55:00,41.3,9.8,29.52,North,9,5.0,13.0,27,0.00,,,0.00,Wunderground v.1.15,2013-03-07 10:55:00,
2013-03-07 04:00:00,41.2,9.7,29.53,North,5,4.0,4.0,27,0.00,,,0.00,Wunderground v.1.15,2013-03-07 11:00:00,
2013-03-07 04:05:00,41.1,9.6,29.53,North,355,4.0,9.0,27,0.00,,,0.00,Wunderground v.1.15,2013-03-07 11:05:00,
2013-03-07 04:10:00,41.1,9.6,29.53,NNW,340,4.0,4.0,27,0.00,,,0.00,Wunderground v.1.15,2013-03-07 11:10:00,
2013-03-07 04:15:00,41.2,8.8,29.52,NNE,15,4.0,9.0,26,0.00,,,0.00,Wunderground v.1.15,2013-03-07 11:15:00,
2013-03-07 04:20:00,41.3,9.8,29.53,NW,321,5.0,5.0,27,0.00,,,0.00,Wunderground v.1.15,2013-03-07 11:20:00,
2013-03-07 04:30:00,41.1,9.6,29.53,SSE,163,3.0,9.0,27,0.00,,,0.00,Wunderground v.1.15,2013-03-07 11:30:00,
2013-03-07 04:40:00,41.0,9.5,29.54,North,360,2.0,9.0,27,0.00,,,0.00,Wunderground v.1.15,2013-03-07 11:40:00,
2013-03-07 04:45:00,40.9,9.4,29.54,ESE,123,3.0,9.0,27,0.00,,,0.00,Wunderground v.1.15,2013-03-07 11:45:00,
2013-03-07 04:50:00,40.9,9.4,29.54,NE,52,3.0,3.0,27,0.00,,,0.00,Wunderground v.1.15,2013-03-07 11:50:00,
2013-03-07 05:00:00,40.9,9.4,29.55,North,355,3.0,3.0,27,0.00,,,0.00,Wunderground v.1.15,2013-03-07 12:00:00,
2013-03-07 05:05:00,40.7,9.3,29.55,NNE,15,2.0,9.0,27,0.00,,,0.00,Wunderground v.1.15,2013-03-07 12:05:00,
2013-03-07 05:10:00,40.7,9.3,29.56,NNE,31,2.0,9.0,27,0.00,,,0.00,Wunderground v.1.15,2013-03-07 12:10:00,
2013-03-07 05:15:00,40.5,9.1,29.55,South,175,2.0,9.0,27,0.00,,,0.00,Wunderground v.1.15,2013-03-07 12:15:00,
2013-03-07 05:20:00,40.6,9.2,29.55,WNW,283,3.0,9.0,27,0.00,,,0.00,Wunderground v.1.15,2013-03-07 12:20:00,
2013-03-07 05:25:00,40.6,8.3,29.55,West,277,2.0,9.0,26,0.00,,,0.00,Wunderground v.1.15,2013-03-07 12:25:00,
2013-03-07 05:30:00,40.5,9.9,29.55,North,360,2.0,2.0,28,0.00,,,0.00,Wunderground v.1.15,2013-03-07 12:30:00,
2013-03-07 05:40:00,40.5,9.1,29.55,SE,135,2.0,9.0,27,0.00,,,0.00,Wunderground v.1.15,2013-03-07 12:40:00,
2013-03-07 05:45:00,40.6,8.3,29.56,WNW,288,2.0,9.0,26,0.00,,,0.00,Wunderground v.1.15,2013-03-07 12:45:00,
2013-03-07 05:50:00,40.7,8.4,29.54,ENE,57,3.0,3.0,26,0.00,,,0.00,Wunderground v.1.15,2013-03-07 12:50:00,
2013-03-07 05:55:00,40.7,8.4,29.54,SSW,192,3.0,9.0,26,0.00,,,0.00,Wunderground v.1.15,2013-03-07 12:55:00,
2013-03-07 06:05:00,40.4,7.3,29.55,NW,321,3.0,6.0,25,0.00,,,0.00,Wunderground v.1.15,2013-03-07 13:05:00,
2013-03-07 06:10:00,40.8,6.7,29.55,NNW,331,3.0,9.0,24,0.00,,,0.00,Wunderground v.1.15,2013-03-07 13:10:00,
2013-03-07 06:15:00,41.0,6.9,29.55,North,360,3.0,9.0,24,0.00,,,0.00,Wunderground v.1.15,2013-03-07 13:15:00,
2013-03-07 06:20:00,40.9,7.7,29.55,SW,220,3.0,9.0,25,0.00,,,0.00,Wunderground v.1.15,2013-03-07 13:20:00,
2013-03-07 06:25:00,40.5,7.4,29.55,North,355,3.0,9.0,25,0.00,,,0.00,Wunderground v.1.15,2013-03-07 13:25:00,
2013-03-07 06:30:00,40.6,9.2,29.55,NE,47,3.0,9.0,27,0.00,,,0.00,Wunderground v.1.15,2013-03-07 13:30:00,
2013-03-07 06:35:00,40.3,8.9,29.56,North,351,3.0,9.0,27,0.00,,,0.00,Wunderground v.1.15,2013-03-07 13:35:00,
2013-03-07 06:45:00,39.7,10.0,29.56,North,360,1.0,9.0,29,0.00,,,0.00,Wunderground v.1.15,2013-03-07 13:45:00,
2013-03-07 06:55:00,39.7,10.0,29.57,North,355,2.0,9.0,29,0.00,,,0.00,Wunderground v.1.15,2013-03-07 13:55:00,
2013-03-07 06:59:00,39.7,9.2,29.57,NNW,344,3.0,9.0,28,0.00,,,0.00,Wunderground v.1.15,2013-03-07 13:59:00,
2013-03-07 07:05:00,40.1,9.6,29.57,North,351,3.0,9.0,28,0.00,,,0.00,Wunderground v.1.15,2013-03-07 14:05:00,
2013-03-07 07:10:00,40.4,9.0,29.58,North,360,3.0,9.0,27,0.00,,,0.00,Wunderground v.1.15,2013-03-07 14:10:00,
2013-03-07 07:15:00,40.6,9.2,29.58,North,360,3.0,9.0,27,0.00,,,0.00,Wunderground v.1.15,2013-03-07 14:15:00,
2013-03-07 07:20:00,40.6,9.2,29.58,NNW,335,2.0,2.0,27,0.00,,,0.00,Wunderground v.1.15,2013-03-07 14:20:00,
2013-03-07 07:30:00,41.4,10.7,29.59,NNW,337,0.0,9.0,28,0.00,,,0.00,Wunderground v.1.15,2013-03-07 14:30:00,
2013-03-07 07:35:00,41.8,9.4,29.59,NNE,14,0.0,9.0,26,0.00,,,0.00,Wunderground v.1.15,2013-03-07 14:35:00,
2013-03-07 07:40:00,42.1,8.7,29.59,ESE,105,0.0,9.0,25,0.00,,,0.00,Wunderground v.1.15,2013-03-07 14:40:00,
2013-03-07 07:44:00,42.1,8.7,29.59,East,86,0.0,9.0,25,0.00,,,0.00,Wunderground v.1.15,2013-03-07 14:44:00,
2013-03-07 07:49:00,42.2,8.8,29.59,NE,49,0.0,9.0,25,0.00,,,0.00,Wunderground v.1.15,2013-03-07 14:49:00,
2013-03-07 07:55:00,42.5,9.1,29.59,NE,49,0.0,9.0,25,0.00,,,0.00,Wunderground v.1.15,2013-03-07 14:55:00,
2013-03-07 08:00:00,42.7,8.4,29.60,NE,49,0.0,9.0,24,0.00,,,0.00,Wunderground v.1.15,2013-03-07 15:00:00,
2013-03-07 08:05:00,42.8,8.4,29.60,SE,133,0.0,9.0,24,0.00,,,0.00,Wunderground v.1.15,2013-03-07 15:05:00,
2013-03-07 08:10:00,43.1,9.6,29.60,SSE,167,2.0,2.0,25,0.00,,,0.00,Wunderground v.1.15,2013-03-07 15:10:00,
2013-03-07 08:15:00,43.7,10.1,29.60,SW,221,1.0,9.0,25,0.00,,,0.00,Wunderground v.1.15,2013-03-07 15:15:00,
2013-03-07 08:20:00,44.0,9.5,29.59,South,188,1.0,1.0,24,0.00,,,0.00,Wunderground v.1.15,2013-03-07 15:20:00,
2013-03-07 08:25:00,44.3,8.8,29.59,SSE,148,2.0,2.0,23,0.00,,,0.00,Wunderground v.1.15,2013-03-07 15:25:00,
2013-03-07 08:29:00,44.6,10.0,29.59,North,355,2.0,9.0,24,0.00,,,0.00,Wunderground v.1.15,2013-03-07 15:29:00,
2013-03-07 08:34:00,44.9,10.2,29.59,ENE,62,1.0,9.0,24,0.00,,,0.00,Wunderground v.1.15,2013-03-07 15:34:00,
2013-03-07 08:45:00,45.0,9.4,29.59,SE,133,2.0,9.0,23,0.00,,,0.00,Wunderground v.1.15,2013-03-07 15:45:00,
2013-03-07 08:50:00,44.8,10.1,29.59,NW,321,2.0,9.0,24,0.00,,,0.00,Wunderground v.1.15,2013-03-07 15:50:00,
2013-03-07 09:00:00,45.5,10.7,29.58,North,5,1.0,1.0,24,0.00,,,0.00,Wunderground v.1.15,2013-03-07 16:00:00,
2013-03-07 09:10:00,46.1,10.3,29.58,NE,46,1.0,1.0,23,0.00,,,0.00,Wunderground v.1.15,2013-03-07 16:10:00,
2013-03-07 09:20:00,46.3,10.5,29.58,ENE,67,1.0,1.0,23,0.00,,,0.00,Wunderground v.1.15,2013-03-07 16:20:00,
2013-03-07 09:29:00,47.4,10.4,29.58,ENE,59,1.0,9.0,22,0.00,,,0.00,Wunderground v.1.15,2013-03-07 16:29:00,
2013-03-07 09:35:00,47.7,9.6,29.58,West,266,1.0,9.0,21,0.00,,,0.00,Wunderground v.1.15,2013-03-07 16:35:00,
2013-03-07 09:44:00,47.4,10.4,29.57,NE,40,2.0,9.0,22,0.00,,,0.00,Wunderground v.1.15,2013-03-07 16:44:00,
2013-03-07 09:50:00,47.1,11.1,29.58,NE,51,2.0,2.0,23,0.00,,,0.00,Wunderground v.1.15,2013-03-07 16:50:00,
2013-03-07 09:55:00,47.1,10.1,29.58,NNW,335,2.0,4.0,22,0.00,,,0.00,Wunderground v.1.15,2013-03-07 16:55:00,
2013-03-07 10:05:00,47.2,12.2,29.58,NE,43,2.0,9.0,24,0.00,,,0.00,Wunderground v.1.15,2013-03-07 17:05:00,
2013-03-07 10:10:00,47.3,10.3,29.58,East,88,2.0,9.0,22,0.00,,,0.00,Wunderground v.1.15,2013-03-07 17:10:00,
2013-03-07 10:20:00,47.7,10.6,29.58,NE,51,1.0,9.0,22,0.00,,,0.00,Wunderground v.1.15,2013-03-07 17:20:00,
2013-03-07 10:30:00,48.2,11.1,29.58,SSW,208,1.0,9.0,22,0.00,,,0.00,Wunderground v.1.15,2013-03-07 17:30:00,
2013-03-07 10:35:00,48.5,10.3,29.58,SE,146,1.0,1.0,21,0.00,,,0.00,Wunderground v.1.15,2013-03-07 17:35:00,
2013-03-07 10:40:00,48.6,11.4,29.58,NNW,342,1.0,9.0,22,0.00,,,0.00,Wunderground v.1.15,2013-03-07 17:40:00,
2013-03-07 10:45:00,48.6,10.4,29.59,SE,141,2.0,9.0,21,0.00,,,0.00,Wunderground v.1.15,2013-03-07 17:45:00,
2013-03-07 10:50:00,48.5,10.3,29.59,SSW,210,2.0,9.0,21,0.00,,,0.00,Wunderground v.1.15,2013-03-07 17:50:00,
2013-03-07 10:54:00,48.5,11.3,29.59,NNE,32,1.0,9.0,22,0.00,,,0.00,Wunderground v.1.15,2013-03-07 17:54:00,
2013-03-07 11:05:00,48.1,9.9,29.59,SSE,155,3.0,9.0,21,0.00,,,0.00,Wunderground v.1.15,2013-03-07 18:05:00,
2013-03-07 11:10:00,47.8,9.7,29.59,SW,231,4.0,9.0,21,0.00,,,0.00,Wunderground v.1.15,2013-03-07 18:10:00,
2013-03-07 11:20:00,48.2,11.1,29.59,South,178,3.0,11.0,22,0.00,,,0.00,Wunderground v.1.15,2013-03-07 18:20:00,
2013-03-07 11:25:00,48.3,10.1,29.59,SSE,160,3.0,3.0,21,0.00,,,0.00,Wunderground v.1.15,2013-03-07 18:25:00,
2013-03-07 11:30:00,47.7,9.6,29.59,SSE,148,4.0,7.0,21,0.00,,,0.00,Wunderground v.1.15,2013-03-07 18:30:00,
2013-03-07 11:35:00,47.3,9.3,29.59,SE,128,4.0,9.0,21,0.00,,,0.00,Wunderground v.1.15,2013-03-07 18:35:00,
2013-03-07 11:40:00,47.3,9.3,29.59,SSE,157,3.0,9.0,21,0.00,,,0.00,Wunderground v.1.15,2013-03-07 18:40:00,
2013-03-07 11:45:00,47.0,9.0,29.59,SE,127,3.0,3.0,21,0.00,,,0.00,Wunderground v.1.15,2013-03-07 18:45:00,
2013-03-07 11:50:00,47.0,10.1,29.59,NE,53,3.0,9.0,22,0.00,,,0.00,Wunderground v.1.15,2013-03-07 18:50:00,
2013-03-07 11:55:00,47.1,9.1,29.59,SSW,201,2.0,2.0,21,0.00,,,0.00,Wunderground v.1.15,2013-03-07 18:55:00,
2013-03-07 12:00:00,46.9,8.9,29.59,SE,133,2.0,9.0,21,0.00,,,0.00,Wunderground v.1.15,2013-03-07 19:00:00,
2013-03-07 12:05:00,46.7,8.8,29.59,SE,130,3.0,9.0,21,0.00,,,0.00,Wunderground v.1.15,2013-03-07 19:05:00,
2013-03-07 12:15:00,46.7,9.8,29.59,ENE,76,3.0,9.0,22,0.00,,,0.00,Wunderground v.1.15,2013-03-07 19:15:00,
2013-03-07 12:25:00,47.1,8.0,29.59,NNE,19,1.0,9.0,20,0.00,,,0.00,Wunderground v.1.15,2013-03-07 19:25:00,
2013-03-07 12:30:00,47.2,8.1,29.58,East,84,2.0,2.0,20,0.00,,,0.00,Wunderground v.1.15,2013-03-07 19:30:00,
2013-03-07 12:35:00,47.5,8.3,29.58,SSW,196,3.0,3.0,20,0.00,,,0.00,Wunderground v.1.15,2013-03-07 19:35:00,
2013-03-07 12:40:00,47.8,8.6,29.58,ENE,64,5.0,5.0,20,0.00,,,0.00,Wunderground v.1.15,2013-03-07 19:40:00,
2013-03-07 12:45:00,48.1,7.7,29.57,NE,52,4.0,9.0,19,0.00,,,0.00,Wunderground v.1.15,2013-03-07 19:45:00,
2013-03-07 12:49:00,48.6,6.9,29.57,SE,140,3.0,9.0,18,0.00,,,0.00,Wunderground v.1.15,2013-03-07 19:49:00,
2013-03-07 12:55:00,49.1,6.1,29.57,SE,128,3.0,9.0,17,0.00,,,0.00,Wunderground v.1.15,2013-03-07 19:55:00,
2013-03-07 13:05:00,49.7,6.6,29.56,SSW,201,4.0,9.0,17,0.00,,,0.00,Wunderground v.1.15,2013-03-07 20:05:00,
2013-03-07 13:10:00,49.9,5.4,29.56,SSE,167,4.0,4.0,16,0.00,,,0.00,Wunderground v.1.15,2013-03-07 20:10:00,
2013-03-07 13:20:00,50.6,6.0,29.56,WSW,240,3.0,9.0,16,0.00,,,0.00,Wunderground v.1.15,2013-03-07 20:20:00,
2013-03-07 13:30:00,51.3,6.5,29.55,North,355,2.0,2.0,16,0.00,,,0.00,Wunderground v.1.15,2013-03-07 20:30:00,
2013-03-07 13:34:00,51.2,6.5,29.56,SSW,198,3.0,3.0,16,0.00,,,0.00,Wunderground v.1.15,2013-03-07 20:34:00,
2013-03-07 13:39:00,51.1,7.7,29.56,SSE,165,3.0,3.0,17,0.00,,,0.00,Wunderground v.1.15,2013-03-07 20:39:00,
2013-03-07 13:45:00,50.5,7.2,29.56,SE,136,4.0,4.0,17,0.00,,,0.00,Wunderground v.1.15,2013-03-07 20:45:00,
2013-03-07 13:50:00,50.8,6.1,29.56,ESE,121,3.0,9.0,16,0.00,,,0.00,Wunderground v.1.15,2013-03-07 20:50:00,
2013-03-07 13:55:00,51.0,8.9,29.56,SSE,157,1.0,9.0,18,0.00,,,0.00,Wunderground v.1.15,2013-03-07 20:55:00,
2013-03-07 14:00:00,51.4,6.6,29.55,East,95,1.0,1.0,16,0.00,,,0.00,Wunderground v.1.15,2013-03-07 21:00:00,
2013-03-07 14:05:00,51.6,8.1,29.56,West,260,1.0,3.0,17,0.00,,,0.00,Wunderground v.1.15,2013-03-07 21:05:00,
2013-03-07 14:10:00,51.7,5.4,29.55,SSE,165,1.0,1.0,15,0.00,,,0.00,Wunderground v.1.15,2013-03-07 21:10:00,
2013-03-07 14:15:00,51.7,9.5,29.54,NNW,344,1.0,9.0,18,0.00,,,0.00,Wunderground v.1.15,2013-03-07 21:15:00,
2013-03-07 14:20:00,52.0,5.7,29.54,ENE,74,1.0,1.0,15,0.00,,,0.00,Wunderground v.1.15,2013-03-07 21:20:00,
2013-03-07 14:25:00,52.2,5.9,29.54,SE,136,1.0,9.0,15,0.00,,,0.00,Wunderground v.1.15,2013-03-07 21:25:00,
2013-03-07 14:30:00,52.4,4.5,29.54,SE,129,1.0,9.0,14,0.00,,,0.00,Wunderground v.1.15,2013-03-07 21:30:00,
2013-03-07 14:35:00,52.2,5.9,29.54,NW,313,2.0,9.0,15,0.00,,,0.00,Wunderground v.1.15,2013-03-07 21:35:00,
2013-03-07 14:40:00,52.0,5.7,29.54,ESE,111,4.0,4.0,15,0.00,,,0.00,Wunderground v.1.15,2013-03-07 21:40:00,
2013-03-07 14:50:00,51.7,3.9,29.53,SSE,151,2.0,2.0,14,0.00,,,0.00,Wunderground v.1.15,2013-03-07 21:50:00,
2013-03-07 14:55:00,51.6,5.4,29.53,SW,229,3.0,3.0,15,0.00,,,0.00,Wunderground v.1.15,2013-03-07 21:55:00,
2013-03-07 15:00:00,51.8,6.9,29.53,South,186,2.0,2.0,16,0.00,,,0.00,Wunderground v.1.15,2013-03-07 22:00:00,
2013-03-07 15:05:00,52.1,4.3,29.53,ENE,65,1.0,6.0,14,0.00,,,0.00,Wunderground v.1.15,2013-03-07 22:05:00,
2013-03-07 15:15:00,52.2,4.3,29.52,SE,142,1.0,9.0,14,0.00,,,0.00,Wunderground v.1.15,2013-03-07 22:15:00,
2013-03-07 15:25:00,52.1,4.3,29.52,SE,142,3.0,9.0,14,0.00,,,0.00,Wunderground v.1.15,2013-03-07 22:25:00,
2013-03-07 15:30:00,51.8,2.4,29.52,SE,146,5.0,5.0,13,0.00,,,0.00,Wunderground v.1.15,2013-03-07 22:30:00,
2013-03-07 15:35:00,51.8,4.0,29.52,SSW,210,4.0,9.0,14,0.00,,,0.00,Wunderground v.1.15,2013-03-07 22:35:00,
2013-03-07 15:40:00,52.1,5.8,29.52,West,267,1.0,1.0,15,0.00,,,0.00,Wunderground v.1.15,2013-03-07 22:40:00,
2013-03-07 15:45:00,52.3,4.4,29.52,NNE,15,1.0,9.0,14,0.00,,,0.00,Wunderground v.1.15,2013-03-07 22:45:00,
2013-03-07 15:50:00,52.4,4.5,29.52,West,261,1.0,1.0,14,0.00,,,0.00,Wunderground v.1.15,2013-03-07 22:50:00,
2013-03-07 15:55:00,52.6,3.1,29.52,SW,225,1.0,9.0,13,0.00,,,0.00,Wunderground v.1.15,2013-03-07 22:55:00,
2013-03-07 16:00:00,52.6,3.1,29.52,NW,311,1.0,1.0,13,0.00,,,0.00,Wunderground v.1.15,2013-03-07 23:00:00,
2013-03-07 16:05:00,52.1,2.7,29.52,South,171,2.0,2.0,13,0.00,,,0.00,Wunderground v.1.15,2013-03-07 23:05:00,
2013-03-07 16:10:00,51.3,5.1,29.52,SE,128,2.0,2.0,15,0.00,,,0.00,Wunderground v.1.15,2013-03-07 23:10:00,
2013-03-07 16:15:00,50.8,1.6,29.51,SSE,150,3.0,3.0,13,0.00,,,0.00,Wunderground v.1.15,2013-03-07 23:15:00,
2013-03-07 16:20:00,50.5,4.5,29.51,SE,144,2.0,2.0,15,0.00,,,0.00,Wunderground v.1.15,2013-03-07 23:20:00,
2013-03-07 16:29:00,50.3,1.2,29.51,South,169,1.0,1.0,13,0.00,,,0.00,Wunderground v.1.15,2013-03-07 23:29:00,
2013-03-07 16:35:00,50.1,2.7,29.51,South,169,1.0,9.0,14,0.00,,,0.00,Wunderground v.1.15,2013-03-07 23:35:00,
2013-03-07 16:40:00,49.9,2.5,29.51,ENE,71,0.0,9.0,14,0.00,,,0.00,Wunderground v.1.15,2013-03-07 23:40:00,
2013-03-07 16:45:00,49.7,2.3,29.51,SE,140,1.0,9.0,14,0.00,,,0.00,Wunderground v.1.15,2013-03-07 23:45:00,
2013-03-07 16:55:00,49.4,2.1,29.52,East,79,0.0,9.0,14,0.00,,,0.00,Wunderground v.1.15,2013-03-07 23:55:00,
2013-03-07 17:00:00,49.2,0.3,29.52,South,179,2.0,2.0,13,0.00,,,0.00,Wunderground v.1.15,2013-03-08 00:00:00,
2013-03-07 17:05:00,49.0,1.8,29.52,SSE,152,2.0,9.0,14,0.00,,,0.00,Wunderground v.1.15,2013-03-08 00:05:00,
2013-03-07 17:14:00,48.6,1.5,29.52,SSE,168,1.0,9.0,14,0.00,,,0.00,Wunderground v.1.15,2013-03-08 00:14:00,
2013-03-07 17:20:00,48.4,1.3,29.52,South,179,1.0,1.0,14,0.00,,,0.00,Wunderground v.1.15,2013-03-08 00:20:00,
2013-03-07 17:25:00,48.1,2.5,29.52,SE,140,1.0,9.0,15,0.00,,,0.00,Wunderground v.1.15,2013-03-08 00:25:00,
2013-03-07 17:35:00,47.2,0.3,29.53,SE,140,0.0,9.0,14,0.00,,,0.00,Wunderground v.1.15,2013-03-08 00:35:00,
2013-03-07 17:45:00,47.0,3.0,29.53,NW,313,1.0,9.0,16,0.00,,,0.00,Wunderground v.1.15,2013-03-08 00:45:00,
2013-03-07 17:50:00,46.8,1.5,29.53,NW,313,0.0,9.0,15,0.00,,,0.00,Wunderground v.1.15,2013-03-08 00:50:00,
2013-03-07 17:55:00,46.4,5.1,29.53,West,268,0.0,9.0,18,0.00,,,0.00,Wunderground v.1.15,2013-03-08 00:55:00,
2013-03-07 18:00:00,45.5,3.1,29.53,West,264,0.0,9.0,17,0.00,,,0.00,Wunderground v.1.15,2013-03-08 01:00:00,
2013-03-07 18:04:00,45.0,4.0,29.53,West,264,0.0,9.0,18,0.00,,,0.00,Wunderground v.1.15,2013-03-08 01:04:00,
2013-03-07 18:10:00,44.4,2.2,29.53,West,264,0.0,9.0,17,0.00,,,0.00,Wunderground v.1.15,2013-03-08 01:10:00,
2013-03-07 18:15:00,43.7,6.2,29.54,West,259,0.0,9.0,21,0.00,,,0.00,Wunderground v.1.15,2013-03-08 01:15:00,
2013-03-07 18:20:00,42.7,3.2,29.54,West,259,0.0,9.0,19,0.00,,,0.00,Wunderground v.1.15,2013-03-08 01:20:00,
2013-03-07 18:25:00,41.9,4.7,29.54,West,259,0.0,9.0,21,0.00,,,0.00,Wunderground v.1.15,2013-03-08 01:25:00,
2013-03-07 18:30:00,41.6,5.5,29.54,West,259,0.0,9.0,22,0.00,,,0.00,Wunderground v.1.15,2013-03-08 01:30:00,
2013-03-07 18:35:00,41.4,5.3,29.55,West,259,0.0,9.0,22,0.00,,,0.00,Wunderground v.1.15,2013-03-08 01:35:00,
2013-03-07 18:40:00,41.3,9.8,29.55,West,273,0.0,9.0,27,0.00,,,0.00,Wunderground v.1.15,2013-03-08 01:40:00,
2013-03-07 18:45:00,41.7,7.5,29.55,West,259,0.0,9.0,24,0.00,,,0.00,Wunderground v.1.15,2013-03-08 01:45:00,
2013-03-07 18:49:00,42.5,6.3,29.56,SW,227,0.0,9.0,22,0.00,,,0.00,Wunderground v.1.15,2013-03-08 01:49:00,
2013-03-07 18:55:00,43.0,9.5,29.57,SW,227,0.0,9.0,25,0.00,,,0.00,Wunderground v.1.15,2013-03-08 01:55:00,
2013-03-07 19:05:00,43.2,8.8,29.57,SSE,151,1.0,9.0,24,0.00,,,0.00,Wunderground v.1.15,2013-03-08 02:05:00,
2013-03-07 19:15:00,42.8,8.4,29.56,SW,232,0.0,9.0,24,0.00,,,0.00,Wunderground v.1.15,2013-03-08 02:15:00,
2013-03-07 19:20:00,42.8,8.4,29.56,SSE,164,0.0,9.0,24,0.00,,,0.00,Wunderground v.1.15,2013-03-08 02:20:00,
2013-03-07 19:25:00,42.7,7.4,29.56,SSE,164,0.0,9.0,23,0.00,,,0.00,Wunderground v.1.15,2013-03-08 02:25:00,
2013-03-07 19:30:00,42.7,9.3,29.56,SSE,164,0.0,9.0,25,0.00,,,0.00,Wunderground v.1.15,2013-03-08 02:30:00,
2013-03-07 19:34:00,42.3,10.6,29.56,West,272,0.0,9.0,27,0.00,,,0.00,Wunderground v.1.15,2013-03-08 02:34:00,
2013-03-07 19:40:00,41.9,7.7,29.56,West,272,0.0,9.0,24,0.00,,,0.00,Wunderground v.1.15,2013-03-08 02:40:00,
2013-03-07 19:45:00,41.8,7.6,29.56,NE,49,0.0,9.0,24,0.00,,,0.00,Wunderground v.1.15,2013-03-08 02:45:00,
2013-03-07 19:50:00,42.3,8.9,29.57,SSW,205,0.0,9.0,25,0.00,,,0.00,Wunderground v.1.15,2013-03-08 02:50:00,
2013-03-07 20:00:00,43.0,6.7,29.57,South,181,1.0,1.0,22,0.00,,,0.00,Wunderground v.1.15,2013-03-08 03:00:00,
2013-03-07 20:10:00,42.9,7.6,29.57,SSE,157,0.0,9.0,23,0.00,,,0.00,Wunderground v.1.15,2013-03-08 03:10:00,
2013-03-07 20:15:00,42.8,9.3,29.57,SSE,163,0.0,9.0,25,0.00,,,0.00,Wunderground v.1.15,2013-03-08 03:15:00,
2013-03-07 20:25:00,41.3,7.2,29.56,SSE,163,0.0,9.0,24,0.00,,,0.00,Wunderground v.1.15,2013-03-08 03:25:00,
2013-03-07 20:30:00,40.8,8.5,29.56,South,178,0.0,9.0,26,0.00,,,0.00,Wunderground v.1.15,2013-03-08 03:30:00,
2013-03-07 20:35:00,40.4,8.2,29.56,South,178,0.0,9.0,26,0.00,,,0.00,Wunderground v.1.15,2013-03-08 03:35:00,
2013-03-07 20:45:00,39.7,7.6,29.56,NW,311,0.0,9.0,26,0.00,,,0.00,Wunderground v.1.15,2013-03-08 03:45:00,
2013-03-07 20:50:00,39.2,8.8,29.56,NW,311,0.0,9.0,28,0.00,,,0.00,Wunderground v.1.15,2013-03-08 03:50:00,
2013-03-07 20:55:00,38.4,8.9,29.56,NW,311,0.0,9.0,29,0.00,,,0.00,Wunderground v.1.15,2013-03-08 03:55:00,
2013-03-07 20:59:00,37.3,9.4,29.56,NW,311,0.0,9.0,31,0.00,,,0.00,Wunderground v.1.15,2013-03-08 03:59:00,
2013-03-07 21:05:00,36.2,13.0,29.57,NW,311,0.0,9.0,38,0.00,,,0.00,Wunderground v.1.15,2013-03-08 04:05:00,
2013-03-07 21:15:00,34.8,14.0,29.57,NW,311,0.0,9.0,42,0.00,,,0.00,Wunderground v.1.15,2013-03-08 04:15:00,
2013-03-07 21:25:00,33.7,8.9,29.56,NW,311,0.0,9.0,35,0.00,,,0.00,Wunderground v.1.15,2013-03-08 04:25:00,
2013-03-07 21:30:00,33.8,10.2,29.57,NW,311,0.0,9.0,37,0.00,,,0.00,Wunderground v.1.15,2013-03-08 04:30:00,
2013-03-07 21:35:00,33.9,11.5,29.57,NW,311,0.0,9.0,39,0.00,,,0.00,Wunderground v.1.15,2013-03-08 04:35:00,
2013-03-07 21:45:00,33.8,14.2,29.57,NW,311,0.0,9.0,44,0.00,,,0.00,Wunderground v.1.15,2013-03-08 04:45:00,
2013-03-07 21:50:00,33.7,13.0,29.57,NW,311,0.0,9.0,42,0.00,,,0.00,Wunderground v.1.15,2013-03-08 04:50:00,
2013-03-07 22:00:00,32.8,15.2,29.57,NW,311,0.0,9.0,48,0.00,,,0.00,Wunderground v.1.15,2013-03-08 05:00:00,
2013-03-07 22:05:00,32.2,15.6,29.57,NW,311,0.0,9.0,50,0.00,,,0.00,Wunderground v.1.15,2013-03-08 05:05:00,
2013-03-07 22:10:00,31.8,10.2,29.57,NW,311,0.0,9.0,40,0.00,,,0.00,Wunderground v.1.15,2013-03-08 05:10:00,
2013-03-07 22:15:00,31.5,13.1,29.57,NW,311,0.0,9.0,46,0.00,,,0.00,Wunderground v.1.15,2013-03-08 05:15:00,
2013-03-07 22:25:00,31.2,11.3,29.57,NW,311,0.0,9.0,43,0.00,,,0.00,Wunderground v.1.15,2013-03-08 05:25:00,
2013-03-07 22:30:00,31.3,12.4,29.57,NW,311,0.0,9.0,45,0.00,,,0.00,Wunderground v.1.15,2013-03-08 05:30:00,
2013-03-07 22:40:00,30.6,11.7,29.57,NW,311,0.0,9.0,45,0.00,,,0.00,Wunderground v.1.15,2013-03-08 05:40:00,
2013-03-07 22:45:00,30.3,14.8,29.57,NW,311,0.0,9.0,52,0.00,,,0.00,Wunderground v.1.15,2013-03-08 05:45:00,
2013-03-07 22:49:00,30.0,13.1,29.57,NW,311,0.0,9.0,49,0.00,,,0.00,Wunderground v.1.15,2013-03-08 05:49:00,
2013-03-07 22:55:00,30.0,11.7,29.57,NW,311,0.0,9.0,46,0.00,,,0.00,Wunderground v.1.15,2013-03-08 05:55:00,
2013-03-07 23:00:00,30.0,10.2,29.57,NW,311,0.0,9.0,43,0.00,,,0.00,Wunderground v.1.15,2013-03-08 06:00:00,
2013-03-07 23:05:00,29.9,13.0,29.56,NW,311,0.0,9.0,49,0.00,,,0.00,Wunderground v.1.15,2013-03-08 06:05:00,
2013-03-07 23:10:00,30.0,11.2,29.57,NW,311,0.0,9.0,45,0.00,,,0.00,Wunderground v.1.15,2013-03-08 06:10:00,
2013-03-07 23:15:00,30.0,10.7,29.57,NW,311,0.0,9.0,44,0.00,,,0.00,Wunderground v.1.15,2013-03-08 06:15:00,
2013-03-07 23:20:00,29.9,11.6,29.57,NW,311,0.0,9.0,46,0.00,,,0.00,Wunderground v.1.15,2013-03-08 06:20:00,
2013-03-07 23:25:00,29.6,11.8,29.57,NW,311,0.0,9.0,47,0.00,,,0.00,Wunderground v.1.15,2013-03-08 06:25:00,
2013-03-07 23:30:00,29.5,11.7,29.57,NW,311,0.0,9.0,47,0.00,,,0.00,Wunderground v.1.15,2013-03-08 06:30:00,
2013-03-07 23:35:00,29.3,11.1,29.57,NW,311,0.0,9.0,46,0.00,,,0.00,Wunderground v.1.15,2013-03-08 06:35:00,
2013-03-07 23:39:00,29.3,11.5,29.57,NW,311,0.0,9.0,47,0.00,,,0.00,Wunderground v.1.15,2013-03-08 06:39:00,
2013-03-07 23:45:00,29.0,12.2,29.58,NW,311,0.0,9.0,49,0.00,,,0.00,Wunderground v.1.15,2013-03-08 06:45:00,
2013-03-07 23:50:00,29.1,12.3,29.57,NW,311,0.0,9.0,49,0.00,,,0.00,Wunderground v.1.15,2013-03-08 06:50:00,
2013-03-07 23:55:00,29.4,12.1,29.57,NW,311,0.0,9.0,48,0.00,,,0.00,Wunderground v.1.15,2013-03-08 06:55:00,